Showing default

CUAVA-2, 60527

Orbit data source: Space-Track

CUAVA-2, 60527 is an Australian payload satellite in SSO that was launched on Fri, 16 Aug 2024 UTC via an FALCON 9 launch vehicle from the Air Force Western Test Range (AFWTR). Payload-class satellites include a variety of spacecraft equipped with specific instruments for various scientific and technological missions. These include communications satellites like Starlink; space stations such as the ISS; scientific satellites like the Hubble; Earth observation satellites from companies like Planet Labs, Umbra, and HawkEye 360; GPS; miniature CubeSats for education and research; and military/defense satellites.

Loading next visibility...
Identifier
60527, 2024-149BM
Orbit
SSO
Country
Flag of AUAU / AUS
Related business
Manufacturer
USYD/UNSW
Mission
Operational Amateur Technology
Bus & Motor
CUBESAT 6U, Unknown motor
Mass
10 kg wet, 10 kg dry
Launch date (UTC)
2024-08-16 (2 years ago)
Launch vehicle
FALCON 9
Launch site
Air Force Western Test Range (AFWTR)
Object type
Payload
Rocket body
Debris
Shape & HBR
Box, 0.2 m
Radar Cross Section
0.080 m², Medium (>0.1 m² and < 1m²)

Expand to show TLE details & history
Last TLE update: 15 hours ago

TLE from 15 hours ago
0 CUAVA-2
1 60527U 24149BM  26264.75322065  .00008735  00000-0  23478-3 0  9990
2 60527  97.3666 346.5438 0005114 313.6807  46.4014 15.38133007117000
Epoch: 2026-09-21T18:04Z
TLE epoch observation values (Epoch: 2026-09-21T18:04:38.264Z)
Latitude
0.00002°
Longitude
74.75584°
Altitude
452.338 km
Speed
7.642 km/s
True Right ascension
23h 06m 10s
True Declination
0° 00' 00"
Sunlit
Object was in full shadow at epoch
Visualization orbit readout
Latitude
Unknown
Longitude
Unknown
Altitude
Unknown
Speed
Unknown
Apparent Right ascension
Unknown
Apparent Declination
Unknown
Sunlit
N/A
Visualization observer readout
Local Sidereal Time
02:01:17
Azimuth
Unknown
Elevation
Unknown
Doppler factor
Unknown
Orbital elements
Apogee altitude
452.062 km
Perigee altitude
445.079 km
Semi-major axis
6,826.707 km
Eccentricity
0.00051
Inclination
97.3666°
RAAN
346.5438°
Arg. of periapsis
313.6807°
True anomaly
46.44386°
Mean anomaly
46.4014°
Eccentric anomaly
46.42263°
Mean motion
3.84792 °/min
Orbital period
93.56 mins
BSTAR
0.00023478
Loading maneuver chart data...
Computing Atmospheric mass density...

Documentation

Showing up to 5 results
|